Flag for Central African Republic Weather past 2 weeks in Bambari, Central African Republic

Now
72 °F

Passing clouds.


Feels Like: 67 °F
Forecast: 66 / 85 °F
Wind: 5 mph from North

Location: Bangui Airport

Current Time: Aug 30, 2015 at 3:36:59 AM

Latest Report: Aug 30, 2015 at 3:00 AM


Visibility: N/A

Pressure: 29.95 "Hg

Humidity: 94%

Dew point: 70 °F

Location of BambariLocation

Historic Weather in Bambari — Graph

°F

Bambari temperature yesterday

Maximum temperature yesterday: 86 °F (at 1:00 PM)
Minimum temperature yesterday: 72 °F (at 6:00 AM)
Average temperature yesterday: 78 °F

Past Weeks' High & Low Weather Summary

 TemperatureHumidityPressure
High91 °F (Aug 22, 2:00 PM)100% (Aug 21, 9:00 PM)29.98 "Hg (Aug 21, 9:00 PM)
Low70 °F (Aug 22, 3:00 AM)56% (Aug 28, 1:00 PM)29.74 "Hg (Aug 22, 5:00 PM)
Average78 °F87%29.88 "Hg
* Reported Aug 21 5:00 PM — Aug 30 2:00 AM, Bambari, Weather by CustomWeather, © 2015

Note: Actual official high and low records may vary slightly from our data, if they occured in-between our weather recording intervals... More about our weather records

Advertising

Bambari weather history for previous 24 hours

 ConditionsComfort  
Time TempWeatherWind HumidityBarometerVisibility
2:00 AM
Sun, Aug 30
73 °FThunderstorms. Passing clouds.5 mph89%29.92 "HgN/A
1:00 AM75 °FThunderstorms. Passing clouds.10 mph94%29.95 "HgN/A
12:00 AM75 °FThunderstorms. Passing clouds.1 mph100%29.95 "HgN/A
11:00 PM
Sat, Aug 29
77 °FThunderstorms. Passing clouds.No wind94%29.98 "HgN/A
10:00 PM77 °FClear.2 mph94%29.98 "Hg10 mi
9:00 PM77 °FClear.2 mph94%29.95 "Hg10 mi
8:00 PM79 °FClear.2 mph89%29.92 "Hg4 mi
7:00 PM79 °FClear.2 mph89%29.89 "Hg4 mi
6:00 PM84 °FPassing clouds.1 mph70%29.86 "HgN/A
5:00 PM86 °FPassing clouds.1 mph70%29.86 "HgN/A
4:00 PM86 °FSunny.2 mph66%29.86 "Hg10 mi
2:00 PM86 °FPassing clouds.3 mph66%29.86 "HgN/A
1:00 PM86 °FPartly sunny.1 mph66%29.92 "HgN/A
12:00 PM84 °FPartly sunny.7 mph74%29.95 "HgN/A
11:00 AM81 °FScattered clouds.7 mph79%29.98 "HgN/A
10:00 AM81 °FScattered clouds.5 mph79%29.98 "HgN/A
9:00 AM79 °FScattered clouds.2 mph84%29.98 "Hg5 mi
8:00 AM73 °FPartly sunny.No wind94%29.98 "Hg5 mi
7:00 AM73 °FPartly sunny.No wind94%29.95 "Hg5 mi
6:00 AM72 °FPartly sunny.No wind100%29.92 "Hg5 mi
5:00 AM73 °FClear.No wind94%29.92 "Hg4 mi
4:00 AM73 °FClear.No wind94%29.89 "Hg4 mi
3:00 AM73 °FClear.No wind94%29.89 "Hg4 mi
Weather by CustomWeather, © 2015

See weather overviewHow to use our weather pages